User: anonymous   Login
Location: Unspecified
(0.0000°N, 0.0000°E)
Time: 12:41:50
(UTC+00:00)
Language:

Geos 1 - Orbit

View from above orbital plane
View from above orbital plane
View from above satellite
View from above satellite

Ground track
Ground track

The orbit data is extracted from the following two-line orbital elements,

1 09931U 77029A   18113.58493847 -.00000360  00000-0  00000+0 0  9998
2 09931  26.4743 230.4573 6583541 122.8025 317.5789  1.96180342293464
Epoch (UTC): 23 April 2018 14:02:18
Eccentricity: 0.6583541
inclination: 26.4743°
perigee height: 2831 km
apogee height: 38321 km
right ascension of ascending node: 230.4573°
argument of perigee: 122.8025°
revolutions per day: 1.96180342
mean anomaly at epoch: 317.5789°
orbit number at epoch: 29346

The dashed part of the orbit path shows where the satellite is in the earth's shadow,  

DLR